Temperature
8 8 8 8 8 7 7 7 7 7 6 6 6 6 6 6 6 6 6 6 6 6 6 6 6 6 6 6 6 6 6 6 6 6 7 7 7 7 7 7 7 7 7
7 7 7 7 7 7 7 6 6 6 6 6 6 6 6 5 5 5 5 5 5 5 6 6 6 6 6 6 6 6 6 6 6 6 6 6 6 6 6 6 6 6 6
7 7 7 6 6 6 6 6 6 5 5 5 5 5 5 5 5 5 5 5 5 5 5 5 5 5 5 5 5 5 5 5 5 5 5 6 6 6 6 6 6 6 6
6 6 6 6 6 5 5 5 5 5 5 5 5 4 4 4 4 4 4 4 4 4 4 5 5 5 5 5 5 5 5 5 5 5 5 5 5 5 5 5 5 5 6
6 6 5 5 5 5 5 5 5 4 4 4 4 4 4 4 4 4 4 4 4 4 4 4 4 4 5 4 4 4 4 4 4 4 4 4 4 5 5 5 5 5 5
5 5 5 5 4 4 4 4 4 4 4 4 3 3 3 3 3 3 3 3 3 3 3 4 4 4 4 4 4 4 4 4 4 4 4 4 4 4 4 4 4 4 4
4 4 4 4 4 4 4 4 3 3 3 3 3 3 3 2 3 3 3 3 3 3 3 3 3 3 3 3 3 4 4 4 4 4 4 4 4 4 4 4 4 4 4
4 3 3 3 3 3 3 3 3 3 3 2 2 2 2 2 2 2 2 2 2 2 2 2 2 2 2 2 2 3 3 3 3 3 3 4 4 4 4 4 4 4 3
3 3 3 2 2 2 2 2 2 2 2 2 2 2 1 1 1 1 1 1 1 2 2 1 1 2 2 2 2 2 2 3 3 3 3 3 3 3 3 3 3 3 3
2 2 2 2 1 1 1 1 2 1 1 1 1 1 1 1 1 1 1 1 1 1 1 1 1 1 1 1 2 2 2 2 2 2 2 2 2 2 2 2 2 2 2
1 1 1 1 1 1 1 1 1 1 0 0 0 0 -0 -0 0 0 0 0 0 0 0 1 1 1 1 1 1 1 1 1 1 2 2 2 1 2 2 2 2 2 2
1 1 1 0 0 -0 -0 -0 -0 -1 -1 -1 -1 -0 -1 -1 -1 -1 -0 -0 -0 -0 -0 -0 -0 -0 0 1 1 1 1 1 1 1 1 1 1 1 1 1 1 1 1
0 -0 -0 -0 -1 -1 -1 -1 -1 -1 -1 -2 -2 -2 -1 -1 -1 -1 -1 -1 -1 -1 -1 -1 -1 -1 -0 -0 0 0 0 0 0 0 0 0 -0 -0 0 0 0 0 0
-0 -1 -1 -1 -1 -2 -2 -2 -2 -2 -2 -2 -3 -2 -2 -2 -2 -2 -2 -2 -2 -2 -1 -1 -1 -1 -1 -1 -0 -0 -0 -0 -0 -0 -0 -1 -1 -1 -1 -1 -0 -0 -0
-1 -2 -2 -2 -2 -2 -2 -3 -3 -3 -3 -3 -3 -3 -3 -3 -3 -3 -2 -2 -2 -2 -2 -2 -2 -2 -1 -1 -1 -1 -1 -1 -1 -1 -1 -1 -1 -1 -1 -1 -1 -1 -1
-2 -2 -2 -3 -3 -3 -3 -3 -3 -4 -4 -3 -3 -4 -3 -3 -3 -3 -3 -3 -3 -3 -2 -2 -2 -2 -2 -2 -2 -2 -2 -1 -1 -1 -2 -2 -2 -2 -2 -2 -2 -2 -2
-2 -3 -3 -3 -3 -4 -4 -4 -4 -4 -4 -4 -4 -4 -4 -4 -3 -3 -3 -3 -3 -3 -3 -3 -3 -3 -3 -3 -2 -2 -2 -2 -2 -2 -2 -2 -2 -2 -2 -2 -2 -2 -2
-3 -3 -3 -4 -4 -4 -4 -5 -5 -5 -5 -4 -4 -4 -4 -4 -4 -4 -3 -3 -3 -3 -3 -3 -3 -3 -3 -3 -3 -3 -3 -3 -2 -2 -2 -2 -2 -3 -3 -3 -3 -3 -3
-3 -3 -4 -4 -4 -4 -5 -5 -5 -5 -5 -5 -5 -5 -5 -5 -4 -4 -4 -4 -4 -4 -4 -4 -3 -3 -3 -3 -3 -3 -3 -3 -3 -3 -3 -3 -3 -3 -3 -3 -3 -3 -3
-4 -4 -4 -5 -5 -5 -5 -5 -5 -6 -6 -6 -6 -6 -6 -5 -5 -5 -5 -5 -5 -4 -4 -4 -4 -4 -4 -4 -4 -4 -4 -3 -3 -3 -3 -3 -3 -3 -3 -3 -3 -4 -4
-4 -5 -5 -5 -5 -6 -6 -6 -6 -6 -6 -6 -6 -6 -6 -6 -6 -6 -5 -5 -5 -5 -4 -4 -4 -4 -4 -4 -4 -4 -4 -4 -4 -4 -4 -4 -3 -3 -4 -4 -4 -4 -4
-5 -5 -5 -6 -6 -6 -6 -6 -6 -6 -6 -6 -6 -6 -6 -6 -6 -6 -6 -5 -5 -5 -5 -5 -4 -4 -4 -4 -4 -4 -4 -4 -4 -4 -4 -4 -4 -4 -4 -4 -4 -4 -4
-5 -5 -6 -6 -6 -6 -6 -6 -6 -6 -6 -7 -7 -7 -6 -6 -6 -6 -6 -6 -5 -5 -5 -5 -5 -4 -4 -4 -4 -4 -4 -4 -4 -4 -4 -4 -4 -4 -4 -4 -4 -4 -4
-6 -6 -6 -6 -6 -7 -7 -7 -7 -7 -7 -7 -7 -7 -7 -6 -6 -6 -6 -6 -6 -5 -5 -5 -5 -5 -5 -4 -4 -4 -4 -4 -4 -4 -4 -4 -4 -4 -4 -4 -4 -4 -5
-6 -7 -7 -7 -7 -7 -7 -7 -7 -7 -7 -7 -7 -7 -7 -7 -6 -6 -6 -6 -6 -6 -5 -5 -5 -5 -5 -5 -5 -5 -4 -4 -4 -4 -4 -4 -4 -4 -4 -4 -4 -4 -5
-7 -7 -7 -7 -7 -7 -7 -7 -7 -7 -7 -7 -7 -7 -7 -7 -7 -7 -6 -6 -6 -6 -6 -6 -5 -5 -5 -5 -5 -5 -5 -5 -5 -4 -4 -4 -4 -4 -4 -4 -5 -5 -5
Wind_Speed
2 2 3 3 3 3 3 4 4 4 4 5 5 5 6 6 6 6 7 7 8 8 8 9 10 9 7 7 7 7 8 7 10 8 5 5 6 6 6 6 7 8 8
2 3 3 4 4 3 4 4 4 4 4 5 5 6 6 7 7 7 8 8 8 9 9 9 9 8 9 7 7 7 7 7 8 10 7 5 6 6 6 6 6 6 6
3 3 3 4 4 4 5 5 4 5 5 5 5 6 6 6 7 7 7 8 8 9 9 9 9 8 9 8 7 8 7 7 7 8 7 5 4 4 4 5 5 5 5
3 3 3 4 5 5 5 5 5 5 5 6 6 6 6 6 7 7 7 8 9 9 8 8 8 9 9 9 8 8 7 7 6 7 7 5 5 4 4 4 5 4 5
4 4 4 5 5 5 6 5 6 6 6 6 6 7 6 6 6 6 7 8 8 8 8 8 9 9 11 9 8 7 7 7 7 7 7 6 5 4 5 4 5 4 4
4 5 5 5 5 6 6 6 6 6 6 6 6 7 7 7 9 11 9 8 8 8 8 8 8 9 10 11 12 11 9 9 8 8 7 7 7 6 5 5 4 4 5
4 5 6 6 6 7 7 6 6 6 6 6 6 6 7 8 11 12 12 9 8 8 8 8 8 8 9 8 9 9 10 11 11 9 9 8 8 7 6 6 6 5 6
4 5 6 6 7 8 7 7 7 6 6 6 6 6 7 8 11 12 12 8 7 8 7 7 8 8 8 7 6 6 6 7 8 7 7 7 6 5 6 6 5 4 2
5 5 6 7 7 8 8 8 7 7 7 7 6 6 6 7 10 11 11 6 6 7 7 7 7 7 9 7 6 6 6 5 5 5 5 4 4 4 4 2 2 2 3
5 6 6 6 7 8 8 8 7 7 7 6 6 5 6 6 9 10 10 5 6 6 6 6 8 9 9 8 5 6 7 5 3 3 3 4 3 3 3 4 4 4 3
5 5 6 6 7 8 7 6 6 6 7 6 6 5 6 7 8 10 10 5 5 6 6 6 6 10 9 9 7 6 7 5 3 3 2 2 2 2 2 2 2 3 3
5 6 6 6 6 7 6 6 6 6 6 6 5 6 4 5 6 8 10 9 8 6 6 5 5 9 9 9 7 6 6 4 2 2 2 2 2 2 1 1 1 1 1
5 6 6 6 5 5 6 6 6 5 4 5 5 6 5 4 5 9 9 10 10 6 5 7 8 8 8 5 5 6 4 3 2 2 2 2 2 1 1 1 2 2 3
5 6 5 6 6 6 5 5 5 5 5 5 5 5 5 5 5 5 5 5 7 6 5 6 7 7 5 5 5 4 2 2 2 2 2 1 1 1 0 0 0 1 2
5 5 5 5 5 5 5 4 5 4 5 6 5 4 5 6 7 11 8 6 5 5 5 4 3 3 3 3 3 3 2 1 1 1 2 1 1 0 0 1 0 1 0
4 5 4 4 5 5 5 6 7 8 10 10 10 8 7 9 13 12 11 11 10 8 5 3 3 3 3 3 2 2 2 1 0 1 1 1 1 1 1 1 1 1 1
4 4 4 4 4 5 5 5 6 8 9 9 10 11 10 11 12 11 10 10 9 7 4 3 3 3 3 3 2 2 2 2 1 0 1 1 1 1 1 1 1 1 1
4 5 5 4 4 4 4 5 5 6 7 6 7 10 11 12 12 11 10 7 5 4 2 2 3 3 2 2 2 2 2 1 1 0 1 1 2 2 2 1 1 1 1
4 3 3 3 3 4 4 4 4 5 5 6 5 7 10 10 11 11 9 4 3 3 3 3 3 3 2 2 2 2 2 2 1 1 0 1 1 2 2 1 1 2 2
3 6 6 4 4 4 4 4 4 4 5 5 5 6 6 7 6 6 6 4 4 4 3 3 3 3 3 2 2 2 2 2 1 1 1 1 1 2 2 2 2 2 1
3 4 6 5 3 3 3 3 3 4 4 5 5 6 9 6 5 5 5 5 4 4 4 3 3 3 3 2 2 1 1 1 1 1 1 1 1 2 2 2 2 2 2
3 3 3 3 3 3 4 3 3 3 4 5 5 6 9 6 4 4 5 5 4 4 3 3 3 3 2 2 2 1 1 1 1 0 1 1 1 2 2 2 2 2 2
2 3 3 3 3 5 5 3 3 3 4 4 5 5 5 5 4 4 5 5 4 4 4 3 3 3 3 3 2 1 1 1 1 1 1 1 1 2 2 3 3 3 3
2 2 3 3 3 3 3 3 3 4 4 4 4 4 4 4 5 5 5 4 4 4 4 3 3 3 4 4 3 2 2 1 0 1 2 2 2 2 3 3 3 3 3
2 2 3 2 3 3 3 3 4 4 4 4 4 4 4 5 5 5 4 4 4 4 5 4 3 4 4 4 4 3 3 4 2 2 2 3 3 3 3 3 3 3 3
2 3 3 2 2 3 3 3 4 4 4 4 4 4 4 4 4 4 4 4 4 4 4 4 4 4 4 3 3 4 4 4 3 3 3 3 4 4 4 3 4 4 4
Wind_Direction
326 323 321 314 299 286 280 279 282 281 272 265 264 265 268 265 259 256 258 258 259 261 259 254 252 248 248 245 242 238 236 238 257 267 255 251 240 237 241 238 240 235 235
317 321 320 318 312 299 290 285 284 284 280 275 273 270 268 271 267 259 263 264 262 264 262 262 260 257 251 249 246 244 242 239 249 263 264 253 250 241 240 238 241 237 235
329 323 321 318 314 303 296 291 287 283 282 282 283 277 276 274 273 267 263 265 265 266 264 261 262 257 254 252 248 248 250 252 250 256 264 262 261 255 254 257 243 240 242
336 321 314 310 306 301 296 294 293 288 284 282 278 276 276 277 273 274 271 268 270 269 269 268 267 257 253 254 251 247 246 247 250 254 258 262 263 259 249 253 257 243 245
335 325 308 303 301 301 296 294 294 291 290 283 282 279 276 277 276 282 284 276 272 273 272 269 268 267 262 257 257 249 243 244 245 249 254 260 257 250 244 242 254 249 250
328 318 314 308 303 300 295 292 289 288 286 284 284 284 281 284 292 292 291 281 275 274 276 277 275 268 267 261 260 255 248 245 245 242 247 251 254 253 251 247 242 253 258
320 318 320 317 311 302 298 297 291 288 289 285 280 283 282 286 292 292 291 289 279 273 274 277 282 278 275 263 259 257 254 253 248 244 244 246 247 242 239 243 239 242 255
316 317 319 320 317 313 304 296 293 292 291 281 278 279 281 287 295 297 296 288 283 277 275 274 275 278 272 270 257 255 256 256 253 250 247 249 252 247 236 240 244 246 267
312 312 315 317 316 314 308 302 298 296 293 283 280 283 284 289 297 301 303 288 288 287 283 280 278 277 281 283 262 253 257 261 269 269 274 273 264 258 246 224 223 224 261
310 312 315 318 315 310 308 306 304 299 295 291 285 284 285 286 296 301 304 292 290 294 294 286 282 284 285 285 262 249 251 256 263 281 287 300 287 269 261 237 224 233 248
320 321 317 316 315 311 309 310 311 309 306 300 289 287 285 291 297 301 303 300 290 293 295 295 291 293 290 286 278 259 257 261 244 239 251 267 286 285 280 276 259 236 236
330 322 316 316 318 319 316 314 316 315 310 309 306 303 295 298 305 304 305 306 307 294 291 296 299 305 301 295 282 271 271 271 240 229 242 252 267 277 292 334 12 1 323
324 317 316 319 319 320 319 320 319 321 316 313 314 312 315 318 318 319 315 312 313 309 299 302 307 311 312 304 294 288 278 246 223 225 237 245 250 220 170 57 48 49 35
318 316 318 320 322 325 324 322 320 319 317 314 314 314 315 318 321 325 320 316 316 315 310 309 313 313 314 319 320 310 284 236 219 220 218 214 196 166 154 286 319 59 39
319 318 321 324 322 321 321 318 315 309 307 310 310 308 311 313 315 319 321 317 313 305 312 311 310 311 320 324 326 325 319 278 217 185 171 170 166 151 15 20 21 17 43
316 318 320 321 319 318 320 321 321 317 320 321 321 317 314 313 316 318 319 318 319 319 322 320 320 316 314 318 325 330 341 344 240 167 163 166 169 162 95 53 49 60 89
309 311 314 316 315 316 319 322 322 327 328 329 330 330 328 326 326 323 321 323 325 332 333 328 323 319 319 324 326 326 325 335 343 148 165 163 150 138 125 111 89 80 75
307 307 311 306 306 308 313 316 317 320 325 330 332 334 335 337 339 338 336 338 338 346 341 326 320 324 326 322 325 328 332 347 6 54 160 159 148 139 136 136 133 122 113
311 309 307 306 306 307 312 315 317 319 320 323 330 335 338 339 342 343 347 354 343 338 338 336 331 333 336 334 336 336 336 344 358 13 110 133 131 128 132 133 136 128 113
306 312 318 317 315 315 316 319 321 323 324 326 329 333 338 343 346 346 350 349 348 342 339 339 339 337 340 339 338 340 349 358 8 18 44 96 116 132 137 136 136 134 120
309 309 316 318 315 316 316 315 316 318 320 323 325 329 336 341 339 340 343 346 344 338 336 339 338 336 335 336 338 346 354 349 360 16 33 76 112 117 120 126 127 123 117
306 310 317 315 316 318 316 313 312 315 320 321 323 328 333 340 339 339 340 340 339 337 337 338 338 336 335 336 335 336 331 320 327 27 73 86 115 128 127 124 125 125 129
313 316 317 312 313 316 322 323 323 323 322 323 324 329 335 339 338 337 337 340 342 343 344 349 349 350 353 347 338 325 296 266 244 201 154 139 137 140 134 131 135 134 132
311 308 307 312 318 318 318 321 325 328 330 330 329 330 332 334 336 337 341 342 344 345 349 355 357 356 354 353 358 355 347 339 158 159 157 148 131 122 122 125 130 133 129
314 311 310 310 314 318 320 323 327 329 328 328 329 332 334 335 338 339 342 344 348 353 354 353 355 360 359 355 353 356 3 15 31 85 118 126 126 124 123 125 127 125 125
315 314 312 312 312 316 318 320 324 326 326 326 330 331 332 335 337 340 343 347 349 351 353 356 359 358 352 358 359 2 12 27 44 71 101 120 126 128 128 128 127 125 122
Height
1420 1419 1418 1417 1416 1415 1414 1413 1412 1411 1410 1409 1407 1406 1405 1404 1403 1402 1402 1402 1401 1401 1400 1400 1400 1400 1399 1399 1400 1399 1399 1399 1396 1394 1397 1397 1398 1399 1399 1400 1401 1401 1401
1416 1415 1414 1413 1411 1410 1409 1408 1407 1405 1404 1403 1402 1400 1399 1398 1397 1396 1395 1394 1394 1393 1393 1393 1392 1393 1392 1392 1392 1391 1391 1391 1391 1389 1389 1390 1391 1391 1392 1392 1393 1393 1394
1412 1411 1409 1408 1407 1406 1405 1403 1402 1400 1399 1398 1396 1395 1393 1392 1391 1390 1389 1388 1387 1386 1386 1386 1385 1385 1385 1385 1384 1384 1384 1384 1384 1383 1382 1383 1383 1384 1385 1385 1386 1386 1386
1409 1407 1406 1404 1403 1401 1400 1398 1396 1395 1393 1392 1390 1389 1388 1386 1385 1384 1383 1382 1381 1380 1379 1379 1378 1378 1378 1378 1377 1377 1377 1377 1377 1377 1376 1376 1376 1377 1377 1377 1377 1378 1378
1405 1404 1402 1400 1398 1396 1394 1392 1390 1389 1387 1386 1384 1383 1382 1381 1379 1377 1376 1375 1374 1373 1372 1371 1371 1371 1371 1371 1371 1370 1370 1370 1370 1370 1369 1369 1368 1369 1369 1370 1370 1370 1370
1402 1400 1398 1396 1394 1391 1389 1386 1385 1383 1382 1380 1378 1377 1376 1374 1373 1372 1371 1369 1367 1366 1365 1364 1363 1363 1363 1363 1363 1363 1363 1363 1363 1363 1362 1362 1361 1362 1363 1363 1363 1363 1362
1398 1396 1393 1391 1389 1386 1384 1382 1379 1377 1375 1373 1372 1371 1370 1368 1367 1366 1364 1363 1361 1359 1358 1357 1356 1356 1356 1355 1355 1355 1356 1356 1357 1357 1355 1355 1355 1356 1357 1357 1356 1356 1356
1394 1392 1390 1387 1384 1381 1379 1376 1374 1372 1370 1368 1366 1365 1364 1362 1361 1360 1358 1357 1355 1353 1352 1351 1350 1348 1348 1348 1347 1347 1347 1348 1349 1350 1349 1349 1350 1350 1350 1351 1350 1350 1350
1391 1389 1386 1383 1380 1377 1374 1371 1369 1366 1364 1362 1360 1359 1358 1356 1355 1354 1353 1351 1349 1347 1346 1345 1343 1342 1341 1342 1341 1340 1340 1340 1342 1343 1343 1343 1343 1344 1345 1345 1344 1344 1343
1388 1385 1382 1379 1376 1372 1369 1366 1363 1361 1359 1356 1354 1353 1352 1351 1350 1349 1348 1345 1343 1341 1340 1338 1337 1336 1336 1335 1335 1334 1333 1333 1335 1335 1336 1336 1337 1337 1338 1339 1339 1339 1338
1384 1381 1378 1375 1372 1368 1365 1362 1359 1356 1354 1351 1349 1348 1347 1346 1344 1344 1342 1340 1338 1336 1334 1332 1331 1331 1330 1330 1329 1329 1328 1329 1329 1329 1329 1330 1330 1331 1332 1333 1333 1334 1334
1381 1377 1374 1371 1368 1365 1361 1358 1355 1353 1350 1347 1345 1343 1342 1341 1339 1338 1337 1336 1334 1332 1329 1328 1326 1325 1324 1324 1324 1323 1323 1324 1324 1323 1324 1324 1325 1325 1326 1327 1328 1328 1329
1377 1374 1371 1367 1364 1361 1358 1355 1351 1349 1346 1344 1341 1339 1337 1336 1335 1334 1332 1331 1329 1328 1325 1324 1322 1321 1320 1319 1318 1318 1318 1318 1318 1319 1319 1319 1320 1321 1322 1322 1323 1324 1324
1373 1370 1367 1364 1361 1358 1355 1352 1349 1347 1344 1342 1339 1336 1334 1332 1331 1329 1328 1326 1325 1323 1321 1320 1318 1317 1316 1315 1314 1313 1314 1314 1314 1315 1315 1316 1317 1317 1318 1319 1319 1320 1320
1369 1367 1364 1361 1358 1355 1352 1350 1347 1345 1343 1341 1337 1335 1332 1329 1328 1327 1325 1323 1321 1320 1318 1316 1314 1313 1312 1311 1310 1310 1310 1310 1311 1311 1312 1313 1314 1314 1315 1316 1316 1317 1318
1366 1364 1361 1358 1355 1352 1349 1347 1345 1343 1341 1338 1336 1333 1330 1328 1326 1324 1322 1320 1318 1317 1315 1313 1312 1311 1310 1309 1308 1308 1308 1308 1308 1309 1309 1310 1311 1312 1312 1313 1314 1315 1315
1364 1361 1359 1356 1353 1350 1347 1344 1341 1339 1337 1335 1333 1330 1328 1325 1323 1320 1318 1316 1315 1314 1312 1311 1310 1309 1308 1307 1306 1306 1306 1306 1306 1307 1307 1308 1309 1310 1311 1312 1312 1313 1314
1361 1359 1356 1353 1351 1348 1345 1343 1340 1337 1334 1331 1330 1328 1325 1323 1320 1318 1315 1314 1312 1311 1310 1309 1308 1308 1307 1306 1305 1305 1304 1304 1305 1305 1306 1307 1307 1308 1309 1310 1311 1312 1313
1358 1355 1353 1351 1349 1346 1343 1341 1338 1336 1333 1330 1327 1325 1323 1321 1318 1316 1314 1312 1311 1310 1309 1308 1307 1306 1306 1305 1304 1304 1303 1303 1304 1304 1304 1305 1306 1307 1307 1308 1310 1311 1312
1354 1353 1351 1348 1346 1344 1341 1339 1337 1334 1332 1329 1326 1324 1321 1319 1316 1314 1313 1311 1310 1309 1308 1307 1306 1305 1305 1304 1303 1303 1302 1302 1302 1303 1303 1304 1305 1306 1307 1307 1309 1310 1311
1351 1349 1348 1346 1344 1341 1339 1337 1335 1333 1330 1328 1326 1324 1322 1319 1316 1314 1312 1311 1310 1309 1308 1307 1305 1304 1304 1303 1302 1302 1302 1301 1302 1302 1303 1303 1304 1305 1306 1307 1308 1309 1310
1349 1347 1345 1343 1341 1340 1338 1336 1334 1332 1330 1328 1325 1323 1321 1318 1316 1314 1312 1311 1310 1309 1308 1306 1305 1304 1303 1302 1301 1301 1301 1301 1301 1301 1302 1302 1303 1304 1305 1306 1307 1309 1310
1346 1345 1343 1342 1340 1338 1337 1335 1333 1331 1329 1327 1325 1322 1320 1318 1316 1314 1312 1311 1309 1308 1307 1306 1304 1303 1303 1302 1301 1301 1300 1300 1300 1300 1301 1301 1302 1304 1305 1306 1307 1308 1309
1344 1343 1341 1340 1338 1337 1335 1333 1331 1329 1328 1326 1324 1322 1320 1318 1316 1314 1313 1311 1309 1308 1307 1306 1305 1303 1303 1302 1301 1300 1300 1300 1300 1300 1300 1301 1302 1303 1304 1306 1307 1308 1309
1343 1341 1340 1338 1337 1335 1334 1332 1330 1328 1327 1325 1324 1322 1320 1318 1316 1315 1313 1311 1310 1308 1307 1306 1305 1304 1303 1302 1301 1300 1300 1300 1300 1300 1301 1301 1302 1303 1304 1306 1307 1308 1310
1340 1339 1338 1336 1335 1334 1332 1331 1329 1328 1326 1325 1323 1321 1320 1318 1316 1315 1313 1311 1310 1309 1307 1306 1305 1304 1303 1302 1301 1300 1300 1300 1300 1300 1301 1301 1302 1303 1305 1306 1307 1309 1310